Home   Weather   Brazzaville   Past weeks

Flag for Congo Past Weather in Brazzaville, Congo — Yesterday and Last 2 Weeks

Now
73 °F

Scattered clouds.


Feels Like: 72 °F
Forecast: 74 / 84 °F
Wind: 5 mph from West

Location: Brazzaville / Maya-Maya

Current Time: Jan 20, 2018 at 8:27:51 am

Latest Report: Jan 20, 2018 at 7:00 am


Visibility: 5 mi

Pressure: 29.92 "Hg

Humidity: 89%

Dew Point: 70 °F

Location of BrazzavilleLocation

Past Weather in Brazzaville — Graph

°F

Brazzaville Temperature Yesterday

Maximum temperature yesterday: 79 °F (at 5:00 pm)
Minimum temperature yesterday: 73 °F (at 2:00 am)
Average temperature yesterday: 76 °F

High & Low Weather Summary for the Past Weeks

 TemperatureHumidityPressure
High91 °F (Jan 17, 3:00 pm)100% (Jan 8, 12:00 am)30.01 "Hg (Jan 8, 12:00 am)
Low72 °F (Jan 7, 10:00 am)49% (Jan 17, 4:00 pm)29.74 "Hg (Jan 17, 4:00 pm)
Average78 °F81%29.90 "Hg
* Reported Jan 5 7:00 am — Jan 20 7:00 am, Brazzaville. Weather by CustomWeather, © 2018

Note: Actual official high and low records may vary slightly from our data, if they occured in-between our weather recording intervals... More about our weather records

Advertising

Brazzaville Weather History for the Previous 24 Hours

Scroll right to see more
 ConditionsComfort  
Time TempWeatherWind HumidityBarometerVisibility
7:00 am
Sat, Jan 20
73 °FScattered clouds.5 mph89%29.92 "Hg5 mi
6:00 am73 °FPassing clouds.2 mph89%29.89 "Hg5 mi
5:00 am73 °FPassing clouds.5 mph89%29.89 "Hg5 mi
4:00 am73 °FPassing clouds.5 mph94%29.89 "Hg5 mi
3:00 am73 °FPassing clouds.2 mph94%29.89 "Hg5 mi
2:00 am73 °FPassing clouds.5 mph100%29.89 "Hg5 mi
1:00 am73 °FPassing clouds.No wind100%29.89 "Hg5 mi
12:00 am73 °FPassing clouds.3 mph94%29.89 "Hg5 mi
11:00 pm
Fri, Jan 19
73 °FClear.2 mph94%29.89 "Hg5 mi
10:00 pm75 °FClear.3 mph89%29.89 "Hg5 mi
9:00 pm75 °FClear.3 mph94%29.89 "Hg5 mi
8:00 pm75 °FClear.2 mph94%29.86 "Hg6 mi
7:00 pm77 °FPassing clouds.2 mph89%29.83 "Hg6 mi
6:00 pm79 °FScattered clouds.5 mph84%29.83 "Hg6 mi
5:00 pm79 °FScattered clouds.2 mph84%29.80 "Hg6 mi
4:00 pm77 °FLight rain. Passing clouds.2 mph83%29.80 "Hg6 mi
3:00 pm77 °FLight rain. Scattered clouds.5 mph83%29.83 "Hg6 mi
2:00 pm77 °FLight rain. Broken clouds.7 mph89%29.86 "Hg6 mi
1:00 pm77 °FBroken clouds.3 mph83%29.89 "Hg6 mi
Weather by CustomWeather, © 2018

See weather overview